Stations météo

réclame
Mon MeteoGroup
Annecy-Meythet, France (7490): Température de l'air & dewpoint: 25.03.2020 03:00:00 - 31.03.2020 03:00:00 (CEST)Annecy-Meythet, France (7490): Température de l'air 5cm: 25.03.2020 03:00:00 - 31.03.2020 03:00:00 (CEST)Annecy-Meythet, France (7490): Température de l'air -20cm & Température de l'air -100cm: 25.03.2020 03:00:00 - 31.03.2020 03:00:00 (CEST)Annecy-Meythet, France (7490): Vitesse du vent & gusts: 25.03.2020 03:00:00 - 31.03.2020 03:00:00 (CEST)Annecy-Meythet, France (7490): Direction du vent: 25.03.2020 03:00:00 - 31.03.2020 03:00:00 (CEST)Annecy-Meythet, France (7490): reduced air pressure: 25.03.2020 03:00:00 - 31.03.2020 03:00:00 (CEST)Annecy-Meythet, France (7490): visibility: 25.03.2020 03:00:00 - 31.03.2020 03:00:00 (CEST)Annecy-Meythet, France (7490): Quantités de précipitations: 25.03.2020 03:00:00 - 31.03.2020 03:00:00 (CEST)
Date & Time tt [°C] td [°C] tt 5cm [°C] tt -20cm [°C] tt -100cm [°C] ff [km/h] ff [knt] fx [km/h] fx [knt] dd ppp [hPa] vv [km] rr [mm]
31.03.2020 03:00:00 3,0 -2,1 2,7 6,5 8,0 10 5 21 12 N 1020,6 29 0,0
31.03.2020 02:00:00 3,0 -2,1 2,7 6,5 8,1 13 7 25 13 NNE 1020,5 28 0,0
31.03.2020 01:00:00 3,1 -2,0 2,8 6,6 8,1 12 7 33 18 N 1020,6 29 0,0
31.03.2020 00:00:00 3,3 -1,7 3,0 6,8 8,1 18 10 34 19 NNE 1020,8 28 0,0
30.03.2020 23:00:00 3,4 -1,8 3,1 6,9 8,1 17 9 41 22 N 1020,8 30 0,0
30.03.2020 22:00:00 3,5 -1,7 3,3 7,1 8,1 22 12 43 23 N 1020,7 33 0,0
30.03.2020 21:00:00 3,6 -1,8 3,3 7,2 8,1 26 14 43 23 N 1020,3 37 0,0
30.03.2020 20:00:00 3,7 -1,7 3,5 7,4 8,1 25 13 43 23 N 1019,8 42 0,0
30.03.2020 19:00:00 4,3 -1,1 4,3 7,4 8,1 24 13 41 22 NNE 1019,5 44 0,0
30.03.2020 18:00:00 4,9 -0,5 5,8 7,4 8,1 24 13 33 18 NNE 1019,3 42 0,0
30.03.2020 17:00:00 5,7 -0,4 8,1 7,2 8,1 21 11 42 23 NNE 1019,0 39 0,0
30.03.2020 16:00:00 5,7 -0,6 8,1 7,0 8,1 27 14 45 25 NNE 1019,2 52 0,0
30.03.2020 15:00:00 5,5 0,3 6,9 6,9 8,1 23 12 41 22 NNE 1019,5 20 0,0
30.03.2020 14:00:00 4,9 -0,3 5,4 6,9 8,1 28 15 42 23 NNE 1019,5 41 0,0
30.03.2020 13:00:00 4,2 -1,0 5,4 6,9 8,1 28 15 46 25 NNE 1019,6 51 0,0
30.03.2020 12:00:00 4,4 -0,4 5,0 6,9 8,1 27 15 52 28 NNE 1019,2 55 0,0
30.03.2020 11:00:00 4,1 -0,5 4,7 6,8 8,1 31 17 48 26 NNE 1018,9 54 0,0
30.03.2020 10:00:00 3,8 -0,4 4,1 6,9 8,1 26 14 44 24 NNE 1018,3 57 0,0
30.03.2020 09:00:00 3,7 0,0 3,6 7,0 8,1 28 15 41 22 NNE 1018,0 48 0,0
30.03.2020 08:00:00 3,8 0,0 3,5 7,1 8,1 24 13 39 21 N 1017,9 40 0,0
30.03.2020 07:00:00 3,8 0,0 3,5 7,2 8,1 26 14 40 22 NNE 1017,5 40 0,0
30.03.2020 06:00:00 3,7 0,0 3,4 7,3 8,1 22 12 38 21 N 1017,5 48 0,0
30.03.2020 05:00:00 3,6 0,1 3,4 7,5 8,1 21 11 39 21 NNE 1017,6 54 0,0
30.03.2020 04:00:00 3,6 0,5 3,4 7,6 8,1 23 12 43 23 NNE 1017,7 57 0,0
30.03.2020 03:00:00 3,6 0,3 3,5 7,8 8,1 25 13 41 22 NNE 1018,2 60 0,0
30.03.2020 02:00:00 3,8 0,3 3,5 8,0 8,1 18 10 32 17 N 1018,7 60 0,0
30.03.2020 01:00:00 3,7 0,6 3,5 8,1 8,1 12 6 34 18 N 1018,9 58 0,0
30.03.2020 00:00:00 4,0 0,3 3,6 8,3 8,1 19 10 42 23 N 1019,0 58 0,0
29.03.2020 23:00:00 4,1 0,8 3,7 8,4 8,1 18 10 36 19 N 1019,0 25 0,0
29.03.2020 22:00:00 4,9 1,0 4,4 8,6 8,1 22 12 48 26 N 1018,7 31 0,0
29.03.2020 21:00:00 5,4 2,2 4,6 8,8 8,1 24 13 42 23 N 1018,5 7 0,2
29.03.2020 20:00:00 6,4 2,3 5,9 8,9 8,1 6 3 16 9 WSW 1017,8 18 0,0
29.03.2020 19:00:00 6,8 2,3 6,3 9,0 8,1 9 5 18 10 WSW 1017,3 19 0,0
29.03.2020 18:00:00 7,3 2,0 6,9 9,1 8,1 11 6 23 12 W 1016,8 19 0,0
29.03.2020 17:00:00 8,7 2,5 7,7 9,2 8,1 14 8 31 17 W 1016,1 16 0,0
29.03.2020 16:00:00 10,5 4,0 10,3 9,1 8,1 11 6 27 15 W 1015,5 14 0,0
29.03.2020 15:00:00 11,8 4,3 11,8 8,9 8,1 19 11 31 17 W 1014,9 16 0,0
29.03.2020 14:00:00 12,1 4,3 12,2 8,8 8,1 18 10 39 21 W 1014,7 20 0,0
29.03.2020 13:00:00 13,0 3,1 14,0 8,5 8,1 23 13 36 19 NW 1014,3 19 0,0
29.03.2020 12:00:00 13,5 3,8 15,8 8,2 8,1 16 8 28 15 WNW 1014,2 19 0,0
29.03.2020 11:00:00 12,5 5,2 13,5 8,0 8,1 3 2 8 4 SW 1014,8 18 0,0
29.03.2020 10:00:00 9,8 4,4 9,1 7,9 8,1 0 0 6 3 N 1015,6 17 0,0
29.03.2020 09:00:00 7,1 4,2 4,9 7,9 8,1 0 0 5 3 N 1016,0 13 0,0
29.03.2020 08:00:00 5,5 3,5 4,2 8,0 8,1 3 2 9 5 NE 1016,4 15 0,0
29.03.2020 07:00:00 5,6 3,1 3,1 8,1 8,1 4 2 11 6 NE 1016,2 15 0,0
29.03.2020 06:00:00 4,6 2,9 2,8 8,2 8,1 5 3 11 6 ENE 1016,7 14 0,0
29.03.2020 05:00:00 5,2 3,0 2,8 8,4 8,1 4 2 10 5 NNE 1016,7 14 0,0
29.03.2020 04:00:00 4,6 2,9 1,5 8,6 8,1 8 5 10 5 NE 1017,1 13 0,0
29.03.2020 03:00:00 5,2 2,5 1,6 8,9 8,1 6 4 10 6 NNE 1017,3 13 0,0
29.03.2020 02:00:00 6,5 3,3 2,3 9,1 8,1 4 2 9 5 N 1017,0 12 0,0
29.03.2020 01:00:00 6,5 3,5 2,7 9,4 8,1 9 5 11 6 ENE 1016,9 12 0,0
29.03.2020 00:00:00 8,4 4,0 4,0 9,6 8,1 4 2 8 5 N 1016,4 13 0,0
28.03.2020 23:00:00 9,7 4,5 6,2 9,7 8,1 2 1 7 4 SW 1016,2 14 0,0
28.03.2020 22:00:00 11,4 3,9 7,2 9,9 8,1 5 3 10 5 NE 1015,8 17 0,0
28.03.2020 21:00:00 13,3 3,6 11,1 10,0 8,1 8 4 24 13 NNE 1015,2 16 0,0
28.03.2020 20:00:00 14,5 3,3 13,0 10,2 8,1 12 6 29 16 NNW 1014,4 17 0,0
28.03.2020 19:00:00 15,9 2,7 15,3 10,1 8,1 15 8 34 19 NW 1013,7 20 0,0
28.03.2020 18:00:00 16,9 2,8 18,7 10,0 8,1 23 12 34 18 N 1013,3 19 0,0
28.03.2020 17:00:00 17,2 2,7 17,6 9,7 8,1 20 11 36 20 NW 1013,2 19 0,0
28.03.2020 16:00:00 17,1 1,5 20,0 9,2 8,1 16 9 31 17 NW 1013,4 20 0,0
28.03.2020 15:00:00 16,7 2,3 19,9 8,6 8,1 13 7 27 15 NW 1014,1 17 0,0
28.03.2020 14:00:00 15,6 2,0 19,4 8,0 8,1 14 8 31 17 WNW 1014,8 15 0,0
28.03.2020 13:00:00 14,5 3,3 19,4 7,4 8,1 9 5 22 12 WSW 1015,6 14 0,0
28.03.2020 12:00:00 12,7 3,4 18,2 7,0 8,1 5 3 16 9 SSW 1016,4 13 0,0
28.03.2020 11:00:00 11,0 2,8 12,5 6,7 8,1 2 1 6 4 SW 1017,3 14 0,0
28.03.2020 10:00:00 6,9 2,6 6,3 6,6 8,1 3 2 7 4 SW 1018,3 10 0,0
28.03.2020 09:00:00 4,3 1,3 1,5 6,7 8,1 0 0 8 4 N 1018,7 9 0,0
28.03.2020 08:00:00 2,5 0,4 -0,6 6,8 8,1 2 1 7 4 ENE 1019,0 7 0,0
28.03.2020 07:00:00 2,7 0,6 0,3 6,9 8,1 4 2 9 5 NNE 1018,7 9 0,0
28.03.2020 06:00:00 2,9 0,8 0,0 7,1 8,1 4 2 6 3 N 1018,6 9 0,0
28.03.2020 05:00:00 3,4 1,0 1,3 7,2 8,1 4 2 7 4 NNE 1018,5 10 0,0
28.03.2020 04:00:00 3,4 1,3 1,6 7,4 8,1 4 2 7 4 NE 1018,5 10 0,0
28.03.2020 03:00:00 3,0 0,9 0,6 7,6 8,1 5 3 10 5 NE 1018,5 10 0,0
28.03.2020 02:00:00 2,6 0,7 0,6 7,8 8,1 6 3 10 6 ENE 1018,4 10 0,0
28.03.2020 01:00:00 3,1 0,8 0,3 8,0 8,1 6 4 8 4 ENE 1018,4 10 0,0
28.03.2020 00:00:00 5,0 0,7 0,5 8,3 8,1 4 2 10 5 N 1017,5 11 0,0
27.03.2020 23:00:00 6,2 0,9 1,7 8,5 8,1 8 4 11 6 N 1016,9 10 0,0
27.03.2020 22:00:00 8,4 0,6 4,2 8,7 8,1 5 3 14 8 WSW 1016,0 13 0,0
27.03.2020 21:00:00 9,5 1,4 7,4 8,8 8,1 8 5 16 8 W 1015,2 14 0,0
27.03.2020 20:00:00 10,8 1,6 9,0 8,9 8,2 10 5 21 11 SW 1014,1 17 0,0
27.03.2020 19:00:00 13,2 0,9 13,2 8,8 8,1 10 5 17 9 WNW 1012,9 21 0,0
27.03.2020 18:00:00 13,2 0,6 13,0 8,7 8,2 9 5 21 12 WNW 1012,5 19 0,0
27.03.2020 17:00:00 13,7 0,7 16,0 8,4 8,1 15 8 23 13 W 1012,4 19 0,0
27.03.2020 16:00:00 12,5 0,6 14,2 7,9 8,1 16 9 27 15 W 1012,7 17 0,0
27.03.2020 15:00:00 12,1 0,2 14,8 7,5 8,2 13 7 24 13 W 1012,9 17 0,0
27.03.2020 14:00:00 10,7 -0,8 14,8 6,9 8,2 12 7 26 14 W 1013,4 15 0,0
27.03.2020 13:00:00 9,7 -0,8 14,0 6,4 8,1 12 6 23 12 WNW 1013,8 11 0,0
27.03.2020 12:00:00 8,7 -1,2 14,1 6,0 8,1 6 3 14 8 W 1014,4 17 0,0
27.03.2020 11:00:00 7,9 -2,2 12,0 5,9 8,2 2 1 9 5 ENE 1014,7 18 0,0
27.03.2020 10:00:00 6,2 -2,4 6,8 5,8 8,1 0 0 8 4 N 1015,2 19 0,0
27.03.2020 09:00:00 2,8 -1,8 -0,4 5,9 8,2 2 1 4 2 S 1015,9 17 0,0
27.03.2020 08:00:00 0,3 -2,6 -2,2 6,0 8,2 0 0 6 4 N 1016,1 16 0,0
27.03.2020 07:00:00 0,2 -2,5 -2,2 6,2 8,2 2 1 4 2 N 1015,8 17 0,0
27.03.2020 06:00:00 0,9 -3,0 -1,8 6,4 8,2 3 2 7 4 NNE 1015,4 20 0,0
27.03.2020 05:00:00 0,7 -3,4 -1,7 6,6 8,2 2 1 10 6 W 1015,3 21 0,0
27.03.2020 04:00:00 1,7 -3,6 -1,4 6,8 8,2 7 4 14 8 N 1015,2 24 0,0
27.03.2020 03:00:00 2,7 -3,4 -0,3 6,9 8,2 9 5 14 7 N 1014,8 26 0,0
27.03.2020 02:00:00 3,0 -3,4 0,5 7,1 8,2 0 0 11 6 N 1014,5 31 0,0
27.03.2020 01:00:00 4,2 -4,3 1,7 7,3 8,2 9 5 15 8 N 1014,3 29 0,0
27.03.2020 00:00:00 5,0 -4,1 1,4 7,5 8,2 10 5 27 15 N 1013,8 25 0,0
26.03.2020 23:00:00 5,4 -3,4 3,7 7,8 8,2 15 8 29 16 N 1013,4 22 0,0
26.03.2020 22:00:00 6,1 -3,3 4,4 8,0 8,2 17 9 28 15 N 1013,1 20 0,0
26.03.2020 21:00:00 6,7 -3,6 5,0 8,3 8,2 15 8 38 21 N 1012,8 20 0,0
26.03.2020 20:00:00 7,9 -4,2 7,1 8,4 8,2 23 12 37 20 NNE 1012,0 23 0,0
26.03.2020 19:00:00 9,9 -4,5 11,1 8,4 8,2 20 11 33 18 NNE 1011,2 28 0,0
26.03.2020 18:00:00 10,2 -4,2 12,8 8,4 8,2 23 12 36 19 N 1011,2 20 0,0
26.03.2020 17:00:00 10,2 -3,2 14,6 8,0 8,2 21 12 34 18 NNE 1011,3 20 0,0
26.03.2020 16:00:00 10,0 -3,3 14,7 7,6 8,2 15 8 32 18 NNE 1011,4 19 0,0
26.03.2020 15:00:00 9,8 -3,9 14,7 7,0 8,2 17 9 31 17 N 1011,9 20 0,0
26.03.2020 14:00:00 9,1 -3,2 8,2 6,5 8,2 9 5 32 18 NW 1012,2 16 0,0
26.03.2020 13:00:00 8,4 -3,8 11,8 6,0 8,2 8 5 25 13 N 1012,7 19 0,0
26.03.2020 12:00:00 6,7 -2,7 11,9 5,6 8,2 4 2 14 7 NW 1013,4 20 0,0
26.03.2020 11:00:00 4,6 -3,2 9,9 5,5 8,2 5 3 15 8 WNW 1014,1 20 0,0
26.03.2020 10:00:00 3,9 -3,2 5,5 5,5 8,2 2 1 6 4 NE 1014,3 18 0,0
26.03.2020 09:00:00 0,5 -2,6 -4,5 5,7 8,2 4 2 6 3 ENE 1015,0 10 0,0
26.03.2020 08:00:00 -1,8 -3,8 -5,2 5,9 8,2 0 0 6 3 N 1015,3 12 0,0
26.03.2020 07:00:00 -1,9 -3,6 -4,6 6,1 8,2 3 1 10 5 NNE 1015,0 10 0,0
26.03.2020 06:00:00 -0,8 -3,7 -3,5 6,3 8,2 0 0 13 7 N 1014,4 15 0,0
26.03.2020 05:00:00 0,3 -3,6 -2,1 6,5 8,2 7 4 13 7 NNE 1014,2 15 0,0
26.03.2020 04:00:00 1,9 -4,4 -1,3 6,7 8,3 4 2 10 5 W 1013,6 21 0,0
26.03.2020 03:00:00 2,6 -4,2 0,5 6,8 8,2 6 4 12 6 NW 1013,4 20 0,0
26.03.2020 02:00:00 2,8 -4,0 0,6 7,0 8,2 6 3 12 7 NW 1013,7 19 0,0
26.03.2020 01:00:00 3,0 -4,0 1,1 7,2 8,3 5 3 9 5 NNW 1014,2 18 0,0
26.03.2020 00:00:00 3,1 -3,1 0,1 7,4 8,2 4 2 11 6 N 1014,5 17 0,0
25.03.2020 23:00:00 3,5 -4,0 -0,1 7,6 8,2 8 4 18 10 NE 1014,7 18 0,0
25.03.2020 22:00:00 4,3 -4,2 1,9 7,9 8,3 8 4 21 11 NE 1014,5 20 0,0
25.03.2020 21:00:00 4,9 -4,4 3,0 8,1 8,3 10 5 19 11 NNW 1014,1 23 0,0
25.03.2020 20:00:00 6,4 -4,7 4,7 8,3 8,3 11 6 31 17 NNW 1013,6 24 0,0
25.03.2020 19:00:00 7,3 -5,4 7,0 8,4 8,3 20 11 38 20 N 1013,5 29 0,0
25.03.2020 18:00:00 8,7 -5,2 9,2 8,3 8,3 16 9 37 20 N 1013,3 33 0,0
25.03.2020 17:00:00 9,6 -7,6 14,2 8,0 8,3 19 10 36 20 N 1013,3 40 0,0
25.03.2020 16:00:00 9,3 -6,6 14,3 7,6 8,3 16 9 34 18 NNE 1014,4 56 0,0
25.03.2020 15:00:00 8,7 -6,7 13,3 7,0 8,3 14 8 33 18 NE 1015,6 35 0,0
25.03.2020 14:00:00 7,9 -3,0 12,1 6,4 8,3 15 8 32 17 NW 1016,7 12 0,0
25.03.2020 13:00:00 7,5 -2,8 12,1 5,9 8,3 13 7 24 13 WNW 1017,6 19 0,0
25.03.2020 12:00:00 5,8 -3,6 11,4 5,6 8,3 7 4 17 9 S 1018,9 20 0,0
25.03.2020 11:00:00 4,6 -4,2 8,5 5,4 8,2 4 2 14 8 W 1020,2 17 0,0
25.03.2020 10:00:00 3,2 -3,4 4,5 5,5 8,3 4 2 13 7 SSW 1021,3 22 0,0
25.03.2020 09:00:00 1,2 -3,1 -3,5 5,6 8,2 3 1 8 4 NW 1022,3 15 0,0
25.03.2020 08:00:00 -1,6 -4,9 -3,4 5,8 8,3 4 2 13 7 NW 1023,0 15 0,0
25.03.2020 07:00:00 -1,0 -4,7 -4,4 6,0 8,3 9 5 14 8 NW 1023,0 17 0,0
25.03.2020 06:00:00 -1,4 -4,7 -5,4 6,2 8,3 8 4 11 6 NNW 1023,3 16 0,0
25.03.2020 05:00:00 -1,9 -4,2 -5,3 6,5 8,3 3 2 7 4 NNW 1023,6 15 0,0
25.03.2020 04:00:00 -1,4 -4,2 -4,5 6,7 8,3 3 2 12 6 ENE 1023,7 17 0,0
25.03.2020 03:00:00 - - - - - - - - - - - - -

tt = Température de l'air
td = dewpoint
tt 5cm = Température de l'air 5cm
tt -20cm = Température de l'air -20cm
tt -100cm = Température de l'air -100cm
ff = Vitesse du vent
fx = gusts
dd = Direction du vent
ppp = reduced air pressure
vv = visibility
rr = Quantités de précipitations

stations d'obs. à proximité